Location: Cran-Gévrier
(45.9039°N, 6.1012°E)
Time: 10:30:04
(UTC+00:00)

Okean O Rocket - Pass Details

Date: 09 February 2023
Orbit: 620 x 643 km, 98.1° (Epoch: 30 March)

Event Time Altitude Azimuth Distance (km) Brightness Sun altitude
Rises 19:44:09 0° 200° (SSW) 2,916 5.1 -30.2°
Reaches altitude 10° 19:46:44 10° 215° (SW) 2,018 4.4 -30.6°
Maximum altitude 19:50:11 22° 267° (W) 1,389 3.9 -31.2°
Drops below altitude 10° 19:53:40 10° 318° (NW) 2,041 4.8 -31.8°
Sets 19:56:19 0° 334° (NNW) 2,960 5.5 -32.3°
